{"data":{"norad_id":60207,"intl_designator":"2024-125E","name":"R5-S2","alt_names":[],"object_type":"PAYLOAD","status":"ACTIVE","operator":null,"country":"US","launch_date":"2024-07-04","launch_site_code":"AFWTR","launch_vehicle":null,"mission":null,"orbit_class":"UNKNOWN","rcs_meters":null,"size_class":null,"mass_kg":null,"dimensions":null,"purposes":[],"wikipedia_slug":null,"has_3d_model":false,"image_url":null,"decayed_at":null,"tle_current":{"epoch":"2026-09-22T19:43:44.128992Z","epoch_age_seconds":80501,"freshness":"FRESH","line1":"1 60207U 24125E   26265.82203853  .00013320  00000+0  25714-3 0  9991","line2":"2 60207  97.2246 117.5430 0013197 228.2127 131.7997 15.47835658124278","mean_motion":15.47835658,"eccentricity":0.0013197,"inclination_deg":97.2246,"raan_deg":117.543,"arg_perigee_deg":228.2127,"mean_anomaly_deg":131.7997,"bstar":0.00025714,"rev_number":12427,"period_min":93.033132591135,"perigee_km":414.08323718765,"apogee_km":432.03431331685,"semimajor_km":6801.1957752522,"source":"CELESTRAK","updated_at":"2026-09-23T09:00:20.459205Z"}}}